K9KDT Weather Reports


time (UTC)temp
C
wind
direction
speed
KPH
gust
KPH
rain 1hr
cm
rain 24hr
cm
rain mn
cm
humidity
%
barometer
mb
20260504081135 7 238 1.6 4.8 0.00 0.00 0.00 85 1004.2
20260504080136 7 238 1.6 4.8 0.00 0.00 0.00 85 1004.2
20260504060135 12 253 3.2 8.0 0.00 0.00 0.00 70 1005.9
20260504050205 13 215 12.9 12.9 0.00 0.00 0.00 65 1006.2
20260504045135 13 207 3.2 14.5 0.00 0.00 0.00 65 1006.0
20260504043135 13 211 6.4 17.7 0.00 0.00 0.00 65 1005.9
20260504042135 13 192 11.3 16.1 0.00 0.00 0.00 65 1006.0
20260504041205 14 180 8.0 16.1 0.00 0.00 0.00 64 1005.9
20260504040135 13 155 6.4 14.5 0.00 0.00 0.00 65 1005.9
20260504035136 14 163 8.0 16.1 0.00 0.00 0.00 64 1005.8
20260504034135 14 153 11.3 17.7 0.00 0.00 0.00 63 1005.9
20260504032135 15 171 11.3 17.7 0.00 0.00 0.00 63 1006.1
20260504031135 15 180 8.0 16.1 0.00 0.00 0.00 63 1006.1
20260504030135 15 151 6.4 14.5 0.00 0.00 0.00 62 1006.1
20260504025205 15 173 9.7 16.1 0.00 0.00 0.00 62 1006.2
20260504024135 15 178 4.8 12.9 0.00 0.00 0.00 62 1006.2
20260504023135 15 157 11.3 12.9 0.00 0.00 0.00 61 1006.2
20260504022135 15 171 9.7 11.3 0.00 0.00 0.00 59 1006.2
20260504021135 15 173 6.4 11.3 0.00 0.00 0.00 59 1006.1
20260504020135 16 161 4.8 11.3 0.00 0.00 0.00 56 1006.2
20260504015135 16 183 6.4 12.9 0.00 0.00 0.00 56 1006.0
20260504014135 16 215 6.4 12.9 0.00 0.00 0.00 56 1006.0
20260504013135 16 226 8.0 19.3 0.00 0.00 0.00 55 1006.0
20260504012205 16 204 11.3 11.3 0.00 0.00 0.00 54 1005.9
20260504011135 17 207 3.2 12.9 0.00 0.00 0.00 54 1005.8
20260504010135 17 202 3.2 12.9 0.00 0.00 0.00 52 1005.6
20260504005135 17 184 4.8 12.9 0.00 0.00 0.00 52 1005.6
20260504004135 17 203 9.7 12.9 0.00 0.00 0.00 51 1005.6
20260504003135 18 219 4.8 14.5 0.00 0.00 0.00 49 1005.7
20260504001135 18 220 4.8 20.9 0.00 0.00 0.00 47 1005.7
20260504000135 19 284 4.8 25.7 0.00 0.00 0.00 46 1005.9
20260503235135 19 252 11.3 20.9 0.00 0.00 0.00 47 1005.9
20260503233135 19 291 8.0 27.4 0.00 0.00 0.00 45 1005.8
20260503232135 20 254 16.1 25.7 0.00 0.00 0.00 44 1005.9
20260503231135 20 204 9.7 25.7 0.00 0.00 0.00 45 1006.1
20260503230135 20 250 9.7 24.1 0.00 0.00 0.00 44 1006.1
20260503225135 20 244 17.7 27.4 0.00 0.00 0.00 45 1006.2
20260503224135 20 210 11.3 30.6 0.00 0.00 0.00 44 1006.3
20260503223135 20 219 20.9 30.6 0.00 0.00 0.00 44 1006.3
20260503222135 20 188 12.9 27.4 0.00 0.00 0.00 42 1006.3
20260503221135 20 225 14.5 29.0 0.00 0.00 0.00 42 1006.2
20260503215135 20 180 8.0 33.8 0.00 0.00 0.00 46 1006.4
20260503214135 19 190 14.5 35.4 0.00 0.00 0.00 44 1006.3
20260503213135 19 217 22.5 32.2 0.00 0.00 0.00 44 1006.5
20260503212135 19 218 25.7 35.4 0.00 0.00 0.00 46 1006.7
20260503211135 19 177 24.1 40.2 0.00 0.00 0.00 46 1006.8
20260503210135 18 227 24.1 43.5 0.00 0.00 0.00 45 1007.1
20260503205135 18 186 12.9 41.8 0.00 0.00 0.00 49 1007.2
20260503204135 18 182 33.8 49.9 0.00 0.00 0.00 45 1007.6
20260503203135 17 172 27.4 48.3 0.00 0.00 0.00 46 1007.6
20260503202135 17 185 27.4 48.3 0.00 0.00 0.00 46 1007.9
20260503201205 17 186 16.1 32.2 0.00 0.00 0.00 47 1008.0
20260503200135 17 163 12.9 40.2 0.00 0.00 0.00 48 1008.2
20260503195135 16 204 19.3 51.5 0.00 0.00 0.00 49 1008.5
20260503194134 16 196 51.5 51.5 0.00 0.00 0.00 52 1008.5
20260503193134 16 175 17.7 48.3 0.00 0.00 0.00 55 1008.8
20260503192135 16 157 25.7 41.8 0.00 0.00 0.00 56 1009.1
20260503191135 16 178 22.5 49.9 0.00 0.00 0.00 56 1009.3
20260503190135 16 184 19.3 48.3 0.00 0.00 0.00 55 1009.2
20260503185135 15 135 20.9 46.7 0.00 0.00 0.00 55 1008.9
20260503184135 15 146 35.4 53.1 0.00 0.00 0.00 53 1009.1
20260503183135 15 126 32.2 49.9 0.00 0.00 0.00 52 1009.3
20260503182134 15 146 25.7 45.1 0.00 0.00 0.00 53 1009.4
20260503181134 15 148 22.5 57.9 0.00 0.00 0.00 55 1009.7
20260503175134 15 132 25.7 41.8 0.00 0.00 0.00 56 1010.2
20260503174134 14 100 25.7 37.0 0.00 0.00 0.00 60 1010.2
20260503173135 13 153 16.1 41.8 0.00 0.00 0.00 63 1010.4
20260503172135 14 142 14.5 45.1 0.00 0.00 0.00 60 1010.7
20260503170135 13 173 19.3 43.5 0.00 0.00 0.00 65 1011.2
20260503160134 10 159 11.3 27.4 0.00 0.00 0.00 77 1012.4
20260503150134 11 192 25.7 40.2 0.00 0.00 0.00 64 1013.4
20260503140134 10 239 16.1 27.4 0.00 0.00 0.00 64 1013.3
20260503131134 10 171 4.8 24.1 0.00 0.00 0.00 61 1014.1
20260503130134 9 207 12.9 25.7 0.00 0.00 0.00 62 1014.0
20260503120134 8 197 12.9 22.5 0.00 0.00 0.00 66 1014.1
20260503110134 7 202 8.0 14.5 0.00 0.00 0.00 65 1013.8
20260503100134 7 208 8.0 20.9 0.00 0.00 0.00 62 1014.0